fusioninventory-agent [kinetic/amd64]

Version Triggers Date Duration Requester Result
1:2.6-2 libjson-pp-perl/4.10000-1 2022-06-25 18:59:57 UTC 0h 19m 10s - pass logartifacts
1:2.6-2 libproc-daemon-perl/0.23-2 2022-06-19 14:46:21 UTC 0h 20m 35s - pass logartifacts
1:2.6-2 libwww-perl/6.67-1 2022-06-19 13:31:45 UTC 0h 16m 24s - pass logartifacts
1:2.6-2 libsocket-getaddrinfo-perl/0.22-4 2022-06-19 11:59:44 UTC 0h 17m 36s - pass logartifacts
1:2.6-2 libnet-cups-perl/0.64-2 2022-06-18 09:41:26 UTC 0h 19m 29s - pass logartifacts
1:2.6-2 libnet-nbname-perl/0.26-3 2022-06-18 00:13:15 UTC 0h 17m 16s - pass logartifacts
1:2.6-2 libsocket-getaddrinfo-perl/0.22-3.1 2022-06-16 10:02:40 UTC 0h 33m 16s - pass logartifacts
1:2.6-2 libxml-treepp-perl/0.43-1.1 2022-06-16 09:44:59 UTC 0h 28m 58s - pass logartifacts
1:2.6-2 libproc-daemon-perl/0.23-1.1 2022-06-16 00:46:57 UTC 0h 26m 11s - pass logartifacts
1:2.6-2 usb.ids/2022.05.20-1 2022-06-11 08:21:39 UTC 0h 46m 22s - pass logartifacts
1:2.6-2 libjson-pp-perl/4.09000-1 2022-05-26 03:04:56 UTC 0h 21m 28s - pass logartifacts
1:2.6-2 libwww-perl/6.66-1 2022-05-22 08:25:07 UTC 0h 18m 20s - pass logartifacts
1:2.6-2 usb.ids/2022.05.09-1 2022-05-17 09:40:42 UTC 0h 18m 52s - pass logartifacts
1:2.6-2 libxml-xpath-perl/1.47-1 2022-05-16 01:19:38 UTC 0h 24m 01s - pass logartifacts
1:2.6-2 libwww-perl/6.65-1 2022-05-15 08:09:44 UTC 0h 14m 52s - pass logartifacts
1:2.6-2 libtext-template-perl/1.61-1 2022-05-09 02:20:51 UTC 0h 25m 11s - pass logartifacts
1:2.6-2 libfile-which-perl/1.27-1 2022-05-07 13:48:53 UTC 0h 10m 18s - pass logartifacts
1:2.6-2 libwww-perl/6.64-1 2022-05-05 23:23:10 UTC 0h 31m 03s - pass logartifacts
1:2.6-2 libjson-pp-perl/4.08000-1 2022-04-30 20:45:42 UTC 0h 27m 47s - pass logartifacts
1:2.6-2 libhttp-daemon-perl/6.14-1 2022-04-30 03:55:41 UTC 0h 31m 34s - pass logartifacts
1:2.6-2 pci.ids/0.0~2022.04.15-1 2022-04-29 21:04:09 UTC 0h 21m 32s - pass logartifacts
1:2.6-2 usb.ids/2022.04.02-1 2022-04-04 12:45:41 UTC 0h 09m 05s - pass logartifacts
1:2.6-2 migration-reference/0 2022-02-08 02:15:17 UTC 0h 11m 38s - pass logartifacts